Location: Buffign�court
(47.8126°N, 6.0176°E)
Time: 14:59:01
(UTC+00:00)

BREEZE-M DEB (TANK) - Pass Details

Date: 16 June 2021
Orbit: 318 x 12038 km, 49.6° (Epoch: 31 July)

Event Time Altitude Azimuth Distance (km) Brightness Sun altitude
Rises 21:31:53 0° 232° (SW) 2,065 5.0 -13.5°
Reaches altitude 10° 21:33:22 10° 226° (SW) 1,333 3.9 -13.6°
Maximum altitude 21:35:49 50° 148° (SSE) 624 2.0 -13.8°
Drops below altitude 10° 21:40:52 10° 73° (ENE) 2,733 5.5 -14.2°
Sets 21:45:23 0° 69° (ENE) 4,833 6.9 -14.5°
